Flag for Finland Weather past 2 weeks in Rovaniemi, Finland

Now
36 °F

Fog.


Feels Like: 29 °F
Forecast: 39 / 45 °F
Wind: 9 mph from South

Location: Rovaniemi Airport

Current Time: Oct 26, 2014 at 1:15:10 AM

Latest Report: Oct 26, 2014 at 12:20 AM


Visibility: 1 mi

Pressure: 29.71 "Hg

Humidity: 100%

Dew point: 36 °F

Location of RovaniemiLocation

Historic Weather in Rovaniemi — Graph

°F

Rovaniemi temperature yesterday

Maximum temperature yesterday: 36 °F (at 8:20 PM)
Minimum temperature yesterday: 28 °F (at 12:20 AM)
Average temperature yesterday: 32 °F

Past Weeks' High & Low Weather Summary

 TemperatureHumidityPressure
High36 °F (Oct 25, 8:20 PM)100% (Oct 10, 11:20 PM)30.48 "Hg (Oct 10, 11:20 PM)
Low12 °F (Oct 22, 2:50 AM)58% (Oct 22, 3:50 PM)29.56 "Hg (Oct 20, 2:50 AM)
Average26 °F93%30.01 "Hg
* Reported Oct 10 11:20 PM — Oct 25 11:50 PM, Rovaniemi, Weather by CustomWeather, © 2014

Note: Actual official high and low records may vary slightly from our data, if they occured in-between our weather recording intervals... More about our weather records

Advertising

Rovaniemi weather history for previous 24 hours

 ConditionsComfort  
Time TempWeatherWind HumidityBarometerVisibility
11:50 PM
Oct 25
36 °FFog.8 mph100%29.71 "Hg2 mi
11:20 PM36 °FLight rain. Fog.12 mph100%29.71 "HgN/A
10:50 PM36 °FFog.13 mph100%29.71 "Hg3 mi
10:20 PM36 °FLight rain. Mostly cloudy.10 mph100%29.74 "Hg5 mi
9:50 PM36 °FLight rain. Passing clouds.12 mph100%29.74 "Hg6 mi
9:20 PM36 °FLight rain. Overcast.13 mph100%29.74 "Hg4 mi
8:50 PM36 °FSprinkles. Partly cloudy.13 mph100%29.74 "Hg4 mi
8:20 PM36 °FDrizzle. Mostly cloudy.13 mph100%29.74 "Hg4 mi
7:50 PM34 °FDrizzle. Mostly cloudy.14 mph100%29.74 "HgN/A
7:20 PM34 °FLight rain. Partly cloudy.13 mph100%29.77 "Hg4 mi
6:50 PM34 °FLight rain. Partly cloudy.10 mph100%29.77 "Hg3 mi
6:20 PM34 °FLight rain. Partly cloudy.10 mph100%29.77 "Hg3 mi
5:50 PM34 °FLight rain. Cloudy.9 mph100%29.77 "Hg4 mi
5:20 PM34 °FRain. Cloudy.8 mph100%29.80 "Hg4 mi
4:50 PM34 °FLight rain. Light fog.10 mph100%29.80 "Hg4 mi
4:20 PM34 °FRain. Fog.10 mph100%29.80 "Hg2 mi
3:50 PM34 °FFog.10 mph100%29.83 "Hg2 mi
3:20 PM34 °FFog.9 mph100%29.83 "Hg2 mi
2:50 PM32 °FIce fog.9 mph100%29.83 "Hg2 mi
2:20 PM32 °FIce fog.9 mph100%29.83 "Hg2 mi
1:50 PM32 °FSprinkles. Cloudy.8 mph100%29.86 "Hg3 mi
1:20 PM32 °FIce fog.9 mph100%29.86 "Hg3 mi
12:50 PM32 °FIce fog.8 mph100%29.86 "Hg2 mi
12:20 PM32 °FIce fog.9 mph100%29.86 "Hg1 mi
11:50 AM32 °FIce fog.9 mph100%29.89 "Hg2 mi
11:20 AM32 °FSprinkles. Broken clouds.8 mph100%29.89 "Hg4 mi
10:50 AM32 °FLight rain. Partly sunny.9 mph100%29.89 "Hg6 mi
10:20 AM32 °FLight freezing rain. Broken clouds.10 mph100%29.89 "Hg3 mi
9:50 AM32 °FIce fog.10 mph100%29.89 "Hg2 mi
9:20 AM32 °FMostly cloudy.9 mph100%29.89 "Hg3 mi
8:50 AM32 °FLight freezing rain. Fog.10 mph100%29.89 "Hg4 mi
8:20 AM30 °FIce fog.9 mph100%29.92 "Hg3 mi
7:50 AM30 °FLight snow. Ice fog.10 mph100%29.92 "Hg3 mi
7:20 AM30 °FScattered showers. Ice fog.10 mph100%29.92 "Hg3 mi
6:50 AM30 °FIce fog.12 mph100%29.92 "Hg3 mi
6:20 AM28 °FIce fog.12 mph100%29.92 "Hg3 mi
5:50 AM28 °FIce fog.9 mph100%29.92 "Hg2 mi
5:20 AM28 °FScattered showers. Ice fog.10 mph100%29.92 "Hg2 mi
4:50 AM28 °FIce fog.10 mph100%29.95 "Hg1 mi
4:20 AM28 °FLight snow. Mostly cloudy.12 mph100%29.95 "Hg1 mi
3:50 AM28 °FLight snow. Overcast.12 mph100%29.95 "Hg2 mi
3:20 AM28 °FLight snow. Overcast.10 mph93%29.95 "Hg2 mi
2:50 AM28 °FLight snow. Mostly cloudy.13 mph93%29.95 "Hg3 mi
2:20 AM28 °FSleet. Partly cloudy.10 mph93%29.98 "Hg2 mi
1:50 AM28 °FSnow. Ice fog.10 mph93%29.98 "Hg1 mi
1:20 AM28 °FSnow. Mostly cloudy.13 mph93%29.98 "Hg1 mi
Weather by CustomWeather, © 2014

See weather overviewHow to use our weather pages